Location: Beranovka
(49.9415°N, 12.8435°E)
Time: 00:11:03
(UTC+00:00)

Cosmos 2082 Rocket - Pass Details

Date: 10 August 2020
Orbit: 835 x 852 km, 71.0° (Epoch: 23 September)

Event Time Altitude Azimuth Distance (km) Brightness Sun altitude
Rises 19:33:49 0° 188° (S) 3,401 5.1 -8.9°
Reaches altitude 10° 19:36:20 10° 183° (S) 2,467 4.3 -9.2°
Maximum altitude 19:41:44 48° 110° (ESE) 1,096 2.4 -9.9°
Drops below altitude 10° 19:47:10 10° 38° (NE) 2,473 4.7 -10.6°
Sets 19:49:41 0° 33° (NNE) 3,410 5.5 -10.9°
